Regional Weather Roundup
Issued by NWS Little Rock, AR

Home | Current Version | Previous Version | Graphics & Text | Print | Product List | Glossary On
Versions: 1 2 3 4 5 6 7 8 9 10 11 12 13 14 15 16 17 18 19 20 21 22 23 24 25 26 27 28 29 30 31 32 33 34 35 36 37 38 39 40 41 42 43 44 45 46 47 48 49 50
000
ASUS44 KLZK 031205
RWRLZK

WEATHER ROUNDUP FOR ARKANSAS
NATIONAL WEATHER SERVICE LITTLE ROCK AR
700 AM CDT THU SEP 03 2015

NOTE: "FAIR" INDICATES FEW OR NO CLOUDS BELOW 12,000 FEET WITH NO
SIGNIFICANT WEATHER AND/OR OBSTRUCTIONS TO VISIBILITY.

ARZ001-003-010-029-031300-
NORTHWEST ARKANSAS

CITY           SKY/WX    TMP DP  RH WIND       PRES   REMARKS
FAYETTEVILLE   CLEAR     64  64 100 CALM      30.03S FOG
6HR MIN TEMP:  64; 6HR MAX TEMP:  69;

FORT SMITH     CLEAR     71  66  84 E3        30.00R
6HR MIN TEMP:  71; 6HR MAX TEMP:  74;

HARRISON       CLEAR     66  65  96 CALM      30.05R
6HR MIN TEMP:  66; 6HR MAX TEMP:  72;

BENTONVILLE    CLEAR     68  63  83 CALM      30.04R
6HR MIN TEMP:  66; 6HR MAX TEMP:  72;

ROGERS         CLEAR     69  66  90 SE5       30.04R
6HR MIN TEMP:  69; 6HR MAX TEMP:  73;

SILOAM SPGS    CLEAR     68  61  77 SE5       30.01S
6HR MIN TEMP:  68; 6HR MAX TEMP:  72;

HIGHFILL       CLEAR     66  65  96 CALM      30.03R
6HR MIN TEMP:  66; 6HR MAX TEMP:  72;

SPRINGDALE     CLEAR     70  66  88 CALM      30.05S
$$

ARZ004-005-016-031300-
NORTH CENTRAL ARKANSAS

CITY           SKY/WX    TMP DP  RH WIND       PRES   REMARKS
BATESVILLE     CLEAR     66  66 100 CALM      30.02S VSB 1
6HR MIN TEMP:  66; 6HR MAX TEMP:  72;

FLIPPIN        PTCLDY    66  61  82 CALM      30.02R
6HR MIN TEMP:  66; 6HR MAX TEMP:  73;

MTN HOME       CLEAR     66  65  96 CALM      30.03R FOG
6HR MIN TEMP:  66; 6HR MAX TEMP:  72;

$$

ARZ040-041-031300-
WEST CENTRAL ARKANSAS

CITY           SKY/WX    TMP DP  RH WIND       PRES   REMARKS
MENA           CLEAR     66  64  94 CALM      30.04R
MOUNT IDA      PTCLDY    66  64  93 CALM      30.01R FOG
6HR MIN TEMP:  66; 6HR MAX TEMP:  70;

$$

ARZ009-017-025-026-028-031300-
NORTHEAST ARKANSAS

CITY           SKY/WX    TMP DP  RH WIND       PRES   REMARKS
JONESBORO      CLEAR     67  67 100 CALM      30.02R
6HR MIN TEMP:  67; 6HR MAX TEMP:  70;

NEWPORT        CLEAR     73  71  93 CALM      30.03S
6HR MIN TEMP:  70; 6HR MAX TEMP:  74;

WALNUT RIDGE   CLEAR     70  66  88 CALM      30.02R
6HR MIN TEMP:  70; 6HR MAX TEMP:  73;

BLYTHEVILLE    CLEAR     70  70 100 CALM      30.02R FOG
6HR MIN TEMP:  70; 6HR MAX TEMP:  74;

$$

ARZ022-023-033-042-044-031300-
CENTRAL ARKANSAS

CITY           SKY/WX    TMP DP  RH WIND       PRES   REMARKS
LITTLE ROCK    PTCLDY    72  70  93 CALM      30.02R
6HR MIN TEMP:  71; 6HR MAX TEMP:  75;

N LITTLE ROCK    N/A     73  71  96 SE2       30.02R
6HR MIN TEMP:  71; 6HR MAX TEMP:  73;

JACKSONVILLE   CLEAR     67  66  97 CALM      30.01R
6HR MIN TEMP:  67; 6HR MAX TEMP:  71;

SEARCY         CLEAR     68  67  96 CALM      30.03S FOG
6HR MIN TEMP:  68; 6HR MAX TEMP:  71;

HOT SPRINGS    CLEAR     69  66  90 CALM      30.03R
6HR MIN TEMP:  68; 6HR MAX TEMP:  72;

RUSSELLVILLE   CLEAR     67  66  97 CALM      30.01R FOG
6HR MIN TEMP:  67; 6HR MAX TEMP:  72;

$$

ARZ036-031300-
EAST ARKANSAS

CITY           SKY/WX    TMP DP  RH WIND       PRES   REMARKS
WEST MEMPHIS   CLEAR     68  68 100 CALM      30.02R FOG
6HR MIN TEMP:  68; 6HR MAX TEMP:  73;

$$

ARZ050-053-066-070-073-031300-
SOUTHWEST ARKANSAS

CITY           SKY/WX    TMP DP  RH WIND       PRES   REMARKS
ARKADELPHIA    FAIR      67  67 100 CALM      30.02R FOG
6HR MIN TEMP:  66; 6HR MAX TEMP:  70;

CAMDEN         FOG       66  64  94 CALM      30.01R VSB 1/2
TEXARKANA      CLEAR     68  67  96 CALM      30.00R
6HR MIN TEMP:  68; 6HR MAX TEMP:  73;

EL DORADO      PTCLDY    66  65  96 CALM      30.01R FOG
6HR MIN TEMP:  66; 6HR MAX TEMP:  71;

DE QUEEN       CLEAR     68  67  96 E3        29.99R FOG
6HR MIN TEMP:  66; 6HR MAX TEMP:  72;

$$

ARZ056-057-069-031300-
SOUTHEAST ARKANSAS

CITY           SKY/WX    TMP DP  RH WIND       PRES   REMARKS
PINE BLUFF     FOG       68  68 100 CALM      30.01S VSB 1
6HR MIN TEMP:  67; 6HR MAX TEMP:  71;

STUTTGART      CLEAR     70  64  83 NE5       30.02R
6HR MIN TEMP:  70; 6HR MAX TEMP:  73;

MONTICELLO     CLEAR     70  70 100 CALM      30.01R FOG
6HR MIN TEMP:  69; 6HR MAX TEMP:  72;


$$




USA.gov is the U.S. government's official web portal to all federal, state and local government web resources and services.